Location: Castle Hill Houses
(40.8186°N, 73.8497°W)
Time: 13:51:48
(UTC+00:00)

Meteor 1-11 - Pass Details

Date: 26 January 2020
Orbit: 840 x 888 km, 81.2° (Epoch: 17 February)

Event Time Altitude Azimuth Distance (km) Brightness Sun altitude
Rises 10:49:26 0° 346° (NNW) 3,412 7.1 -15.5°
Reaches altitude 10° 10:51:53 10° 342° (NNW) 2,478 6.3 -15.1°
Maximum altitude 10:57:22 58° 265° (W) 993 4.2 -14.1°
Drops below altitude 10° 11:02:53 10° 188° (S) 2,489 6.7 -13.1°
Sets 11:05:21 0° 184° (S) 3,429 7.5 -12.6°
